This is the latest recevied weather packets stored in our database for station/object OE-11073. If no packets are shown the sender has not sent any weather packets the latest 10 day(s).
| Time | Temp. | Humidity | Pressure | Rain* | Wind** | Luminosity | Snow |
|---|---|---|---|---|---|---|---|
| 1788017710 | 21.11° C | 55% | - | 0 mm | - | 230 W/m² | - |
| 1788017110 | 20.56° C | 58% | - | 0 mm | - | 191 W/m² | - |
| 1788016283 | 20.56° C | 57% | - | 0 mm | - | 176 W/m² | - |
| 1788015910 | 20.56° C | 57% | - | 0 mm | - | 214 W/m² | - |
| 1788015310 | 21.11° C | 56% | - | 0 mm | - | 237 W/m² | - |
| 1788014483 | 21.11° C | 57% | - | 0 mm | - | 291 W/m² | - |
| 1788014110 | 21.67° C | 57% | - | 0 mm | - | 406 W/m² | - |
| 1788013509 | 22.22° C | 52% | - | 0 mm | - | 497 W/m² | - |
| 1788012683 | 21.67° C | 50% | - | 0 mm | - | 574 W/m² | - |
| 1788012310 | 21.67° C | 54% | - | 0 mm | - | 413 W/m² | - |
| 1788011710 | 21.67° C | 52% | - | 0 mm | - | 421 W/m² | - |
| 1788010883 | 21.11° C | 52% | - | 0 mm | - | 321 W/m² | - |
| 1788010510 | 21.11° C | 56% | - | 0 mm | - | 321 W/m² | - |
| 1788009909 | 21.11° C | 55% | - | 0 mm | - | 321 W/m² | - |
| 1788009082 | 21.11° C | 55% | - | 0 mm | - | 344 W/m² | - |
| 1788008710 | 21.11° C | 57% | - | 0 mm | - | 344 W/m² | - |
| 1788008110 | 20.56° C | 54% | - | 0 mm | - | 344 W/m² | - |
| 1788007283 | 20.56° C | 61% | - | 0 mm | - | 329 W/m² | - |
| 1788006910 | 20.56° C | 56% | - | 0 mm | - | 337 W/m² | - |
| 1788006310 | 21.11° C | 56% | - | 0 mm | - | 360 W/m² | - |
| 1788005482 | 20.56° C | 62% | - | 0 mm | - | 360 W/m² | - |
| 1788005110 | 20.56° C | 58% | - | 0 mm | - | 375 W/m² | - |
| 1788004510 | 20° C | 62% | - | 0 mm | - | 375 W/m² | - |
| 1788003683 | 20° C | 63% | - | 0 mm | - | 360 W/m² | - |
| 1788003310 | 19.44° C | 64% | - | 0 mm | - | 375 W/m² | - |
* Rain latest hour (hover to see other rain measurements)
** Current wind speed in m/s (hover to see current wind gust speed)